Location: Castelbiague
(43.0361°N, 0.9246°E)
Time: 19:20:57
(UTC+00:00)

THORAD AGENA D DEB - Visible Passes

Search period start: 24 January 2022 00:00
Search period end: 03 February 2022 00:00
Orbit: 770 x 812 km, 99.7° (Epoch: 24 January)

Date Brightness Start Highest point End Pass type
(mag) Time Alt. Az. Time Alt. Az. Time Alt. Az.
24 Jan ? 20:00:31 10° N 20:00:31 10° N 20:00:32 10° N visible
25 Jan ? 19:30:47 11° N 19:30:47 11° N 19:30:58 10° N visible
27 Jan ? 20:12:01 11° NNW 20:12:01 11° NNW 20:12:14 10° NNW visible
28 Jan ? 19:42:17 12° N 19:42:17 12° N 19:42:45 10° N visible
29 Jan ? 19:12:31 12° NNE 19:12:31 12° NNE 19:12:56 10° N visible
30 Jan ? 20:23:29 12° NNW 20:23:29 12° NNW 20:23:51 10° NNW visible
31 Jan ? 19:53:44 14° N 19:53:44 14° N 19:54:26 10° N visible
01 Feb ? 19:23:57 14° NNE 19:23:57 14° NNE 19:24:44 10° N visible
02 Feb ? 18:54:11 11° NNE 18:54:11 11° NNE 18:54:34 10° NNE visible
02 Feb ? 20:34:55 13° NNW 20:34:55 13° NNW 20:35:24 10° NNW visible
